Weather History for Lafayette, IN

Change the Weather History Date:

Friday, June 28, 2013

  Actual Average Record
Temperature  
Mean Temperature 74 °F 74 °F  
Max Temperature 85 °F 85 °F 101 °F (2012)
Min Temperature 63 °F 63 °F 46 °F (1992)
Degree Days  
Heating Degree Days 0 0  
Month to date heating degree days 18 22  
Since 1 June heating degree days 18 22  
Since 1 July heating degree days 5911 5672  
Cooling Degree Days 9 9  
Month to date cooling degree days 173 197  
Year to date cooling degree days 274 274  
Since 1 June cooling degree days 173 197  
Growing Degree Days 24 (Base 50)    
Moisture  
Dew Point 62 °F    
Average Humidity 70    
Maximum Humidity 100    
Minimum Humidity 40    
Precipitation  
Precipitation 0.21 in 0.13 in 1.80 in (1957)
Month to date precipitation 3.51 3.83  
Year to date precipitation 22.13 17.85  
Sea Level Pressure  
Sea Level Pressure 29.66 in    
Wind  
Wind Speed 9 mph (West)    
Max Wind Speed 26 mph    
Max Gust Speed 36 mph    
Visibility 10 miles    
Events Rain    
T = Trace of Precipitation, MM = Missing Value Source: NWS Daily Summary

Daily Weather History Graph

Daily Weather History Graph

Search for Another Location

Airport:

Trip Planner

Search our weather history database for the weather conditions in past years. The results will help you decide how hot, cold, wet, or windy it might be!

Date:

Astronomy

Jun. 28, 2013 Rise Set
Actual Time 6:20 AM EDT 9:22 PM EDT
Civil Twilight 5:46 AM EDT 9:55 PM EDT
Nautical Twilight 5:04 AM EDT 10:37 PM EDT
Astronomical Twilight 4:15 AM EDT 11:26 PM EDT
Moon 12:17 AM EDT (6/28) 12:28 PM EDT (6/28)
Length of Visible Light 16h 08m
Length of Day
15h 02m
Waning Gibbous, 66% of the Moon is Illuminated
Jun 28
Waning Gibbous
Jun 30
Last Quarter
Jul 8
New
Jul 15
First Quarter
Jul 22
Full

Hourly Weather History & Observations

Time (EDT) Temp. Heat Index Dew Point Humidity Pressure Visibility Wind Dir Wind Speed Gust Speed Precip Events Conditions
12:54 AM 72.0 °F - 64.9 °F 78% 29.71 in 10.0 mi West 9.2 mph - N/A   Clear
1:54 AM 71.1 °F - 64.9 °F 81% 29.71 in 10.0 mi West 8.1 mph - N/A   Clear
2:54 AM 71.1 °F - 62.1 °F 73% 29.69 in 10.0 mi WNW 9.2 mph - N/A   Clear
3:54 AM 69.1 °F - 61.0 °F 75% 29.68 in 10.0 mi West 10.4 mph - N/A   Clear
4:54 AM 66.9 °F - 61.0 °F 81% 29.68 in 10.0 mi West 6.9 mph - N/A   Clear
5:54 AM 64.0 °F - 61.0 °F 90% 29.68 in 10.0 mi West 4.6 mph - N/A   Clear
6:54 AM 64.9 °F - 61.0 °F 87% 29.69 in 10.0 mi West 5.8 mph - N/A   Clear
7:54 AM 68.0 °F - 62.1 °F 81% 29.69 in 10.0 mi WSW 6.9 mph - N/A   Clear
8:54 AM 72.0 °F - 62.1 °F 71% 29.69 in 10.0 mi West 6.9 mph - N/A   Clear
9:54 AM 75.0 °F - 63.0 °F 66% 29.69 in 10.0 mi West 10.4 mph - N/A   Clear
10:54 AM 78.1 °F - 64.0 °F 62% 29.68 in 10.0 mi West 10.4 mph - N/A   Clear
11:54 AM 80.1 °F 81.5 °F 63.0 °F 56% 29.67 in 10.0 mi West 13.8 mph - N/A   Clear
12:54 PM 82.0 °F 83.4 °F 64.0 °F 54% 29.66 in 10.0 mi West 13.8 mph 18.4 mph N/A   Scattered Clouds
1:54 PM 82.9 °F 84.0 °F 63.0 °F 51% 29.64 in 10.0 mi WNW 13.8 mph 21.9 mph N/A   Scattered Clouds
2:54 PM 84.9 °F 85.4 °F 62.1 °F 46% 29.62 in 10.0 mi WNW 16.1 mph 24.2 mph N/A   Scattered Clouds
3:54 PM 82.9 °F 83.2 °F 60.1 °F 46% 29.61 in 10.0 mi WNW 17.3 mph 24.2 mph N/A   Scattered Clouds
4:54 PM 82.9 °F 82.4 °F 57.0 °F 41% 29.60 in 10.0 mi WNW 18.4 mph 24.2 mph N/A   Scattered Clouds
5:54 PM 82.0 °F 81.6 °F 55.9 °F 41% 29.61 in 10.0 mi WNW 9.2 mph 19.6 mph N/A   Clear
6:54 PM 79.0 °F - 57.0 °F 47% 29.60 in 10.0 mi WNW 11.5 mph - N/A   Scattered Clouds
7:54 PM 66.0 °F - 63.0 °F 90% 29.64 in 3.0 mi North 5.8 mph 16.1 mph 0.21 in Rain Light Rain
8:54 PM 66.9 °F - 64.9 °F 93% 29.65 in 10.0 mi WSW 4.6 mph - 0.00 in   Overcast
9:54 PM 66.9 °F - 64.0 °F 90% 29.63 in 10.0 mi West 4.6 mph - 0.00 in   Overcast
10:54 PM 64.9 °F - 64.0 °F 97% 29.62 in 10.0 mi West 4.6 mph - N/A   Clear
11:54 PM 64.0 °F - 63.0 °F 96% 29.61 in 10.0 mi West 4.6 mph - N/A   Scattered Clouds